This demonstration page uses our WeatherBlox Daily Observations layout. Learn more.

Left ArrowRight Arrow

34.74481, -87.66753

Hourly Observations for March 9, 2018

Temp ( °F °C ) Dew Point ( °F °C ) Humidity (%) Winds ( mph kmh ) Pressure ( in mb ) Visibility ( mi km ) Precip ( " mm )
12:53 am 00:53 Clear 29 -1.7 25 -3.9 85 85 SE 3 6 30.13 1020 10 16 0.00 0.00
1:53 am 01:53 undefined 30 -1.1 24 -4.4 79 79 undefined N/A 30.13 1020 N/A 0.00 0.00
2:53 am 02:53 Clear 29 -1.7 24 -4.4 82 82 Calm 30.12 1020 10 16 0.00 0.00
3:53 am 03:53 Clear 30 -1.1 24 -4.4 79 79 Calm 30.14 1021 10 16 0.00 0.00
4:53 am 04:53 Clear 28 -2.2 24 -4.4 85 85 Calm 30.14 1021 10 16 0.00 0.00
5:53 am 05:53 Clear 29 -1.7 24 -4.4 82 82 Calm 30.14 1021 10 16 0.00 0.00
6:53 am 06:53 Sunny 30 -1.1 25 -3.9 82 82 ESE 3 6 30.15 1021 10 16 0.00 0.00
7:53 am 07:53 Sunny 37 2.8 27 -2.8 67 67 SE 7 11 30.14 1021 10 16 0.00 0.00
8:53 am 08:53 Sunny 44 6.7 27 -2.8 51 51 SE 6 9 30.14 1021 10 16 0.00 0.00
9:53 am 09:53 Sunny 50 10 26 -3.3 39 39 S 7 11 30.13 1020 10 16 0.00 0.00
10:53 am 10:53 Sunny 55 12.8 27 -2.8 34 34 SSW 7 11 30.11 1020 10 16 0.00 0.00
11:53 am 11:53 Sunny 61 16.1 27 -2.8 27 27 SW 13 20 30.07 1018 10 16 0.00 0.00
12:53 pm 12:53 Sunny 63 17.2 27 -2.8 26 26 SW 16 26 30.03 1017 10 16 0.00 0.00
1:53 pm 13:53 Sunny 64 17.8 27 -2.8 25 25 WSW 12 19 30.00 1016 10 16 0.00 0.00
2:53 pm 14:53 Sunny 64 17.8 28 -2.2 26 26 SSW 12 19 29.97 1015 10 16 0.00 0.00
3:53 pm 15:53 Sunny 63 17.2 25 -3.9 24 24 SW 14 22 29.97 1015 10 16 0.00 0.00
4:53 pm 16:53 Sunny 63 17.2 26 -3.3 25 25 SSW 13 20 29.96 1015 10 16 0.00 0.00
5:53 pm 17:53 Sunny 59 15 27 -2.8 29 29 SSW 10 17 29.96 1015 10 16 0.00 0.00
6:53 pm 18:53 Clear 53 11.7 28 -2.2 38 38 SSE 6 9 29.96 1014 10 16 0.00 0.00
7:53 pm 19:53 Clear 53 11.7 28 -2.2 38 38 S 6 9 29.96 1015 10 16 0.00 0.00
8:53 pm 20:53 Clear 54 12.2 28 -2.2 37 37 S 9 15 29.96 1015 10 16 0.00 0.00
9:53 pm 21:53 Clear 53 11.7 28 -2.2 38 38 S 8 13 29.95 1014 10 16 0.00 0.00
10:53 pm 22:53 Mostly Cloudy 53 11.7 28 -2.2 38 38 SSW 7 11 29.95 1014 10 16 0.00 0.00
11:53 pm 23:53 Mostly Cloudy 53 11.7 28 -2.2 38 38 SSW 8 13 29.95 1014 10 16 0.00 0.00

Powered by AerisWeather